Weather History for Jesup, GA

Change the Weather History Date:

Thursday, March 21, 2013

  Actual Average (KLHW) Record (KLHW)
Temperature  
Mean Temperature 48 °F -  
Max Temperature 60 °F 74 °F 88 °F (1968)
Min Temperature 35 °F 50 °F 31 °F (1965)
Degree Days  
Heating Degree Days 16    
Moisture  
Dew Point 33 °F    
Average Humidity 56    
Maximum Humidity 93    
Minimum Humidity 31    
Precipitation  
Precipitation 0.00 in - - ()
Sea Level Pressure  
Sea Level Pressure 29.92 in    
Wind  
Wind Speed 7 mph (NW)    
Max Wind Speed 18 mph    
Max Gust Speed 25 mph    
Visibility 10 miles    
Events      
Averages and records for this station are not official NWS values.
T = Trace of Precipitation, MM = Missing Value Source: NWS Daily Summary

Daily Weather History Graph

Daily Weather History Graph

Search for Another Location

Airport:

Trip Planner

Search our weather history database for the weather conditions in past years. The results will help you decide how hot, cold, wet, or windy it might be!

Date:

Astronomy

Mar. 21, 2013 Rise Set
Actual Time 7:29 AM EDT 7:39 PM EDT
Civil Twilight 7:05 AM EDT 8:04 PM EDT
Nautical Twilight 6:37 AM EDT 8:32 PM EDT
Astronomical Twilight 6:08 AM EDT 9:01 PM EDT
Moon 2:26 PM EDT (3/21) 3:32 AM EDT (3/21)
Length of Visible Light 12h 58m
Length of Day
12h 10m
Waxing Gibbous, 68% of the Moon is Illuminated
Mar 21
Waxing Gibbous
Mar 27
Full
Apr 3
Last Quarter
Apr 10
New
Apr 18
First Quarter

Hourly Weather History & Observations

Time (EDT) Temp. Windchill Dew Point Humidity Pressure Visibility Wind Dir Wind Speed Gust Speed Precip Events Conditions
12:15 AM 42.8 °F 38.6 °F 39.2 °F 87% 29.90 in 10.0 mi NW 6.9 mph - N/A   Clear
12:35 AM 46.4 °F 42.9 °F 37.4 °F 71% 29.89 in 10.0 mi NW 6.9 mph - N/A   Clear
12:55 AM 46.4 °F 43.5 °F 37.4 °F 71% 29.89 in 10.0 mi WNW 5.8 mph - N/A   Clear
1:15 AM 46.4 °F 43.5 °F 35.6 °F 66% 29.90 in 10.0 mi NW 5.8 mph - N/A   Clear
1:35 AM 46.4 °F 43.5 °F 35.6 °F 66% 29.89 in 10.0 mi NW 5.8 mph - N/A   Clear
1:55 AM 46.4 °F 44.3 °F 35.6 °F 66% 29.88 in 10.0 mi NW 4.6 mph - N/A   Clear
2:15 AM 46.4 °F - 35.6 °F 66% 29.88 in 10.0 mi Calm Calm - N/A   Clear
2:55 AM 44.6 °F 41.4 °F 33.8 °F 66% 29.89 in 10.0 mi WNW 5.8 mph - N/A   Clear
3:15 AM 42.8 °F 41.1 °F 33.8 °F 70% 29.89 in 10.0 mi NW 3.5 mph - N/A   Clear
3:35 AM 42.8 °F 41.1 °F 33.8 °F 70% 29.88 in 10.0 mi WNW 3.5 mph - N/A   Clear
3:55 AM 42.8 °F 39.3 °F 33.8 °F 70% 29.89 in 10.0 mi WNW 5.8 mph - N/A   Clear
4:15 AM 42.8 °F 39.3 °F 33.8 °F 70% 29.88 in 10.0 mi NW 5.8 mph - N/A   Clear
4:35 AM 44.6 °F 40.7 °F 33.8 °F 66% 29.89 in 10.0 mi NW 6.9 mph - N/A   Clear
4:55 AM 44.6 °F 40.7 °F 33.8 °F 66% 29.89 in 10.0 mi NW 6.9 mph - N/A   Clear
5:15 AM 44.6 °F 41.4 °F 33.8 °F 66% 29.89 in 10.0 mi NNW 5.8 mph - N/A   Clear
5:35 AM 42.8 °F 41.1 °F 33.8 °F 70% 29.89 in 10.0 mi NW 3.5 mph - N/A   Clear
5:55 AM 42.8 °F 41.1 °F 32.0 °F 66% 29.90 in 10.0 mi WNW 3.5 mph - N/A   Clear
6:15 AM 37.4 °F 34.9 °F 33.8 °F 87% 29.91 in 10.0 mi NW 3.5 mph - N/A   Clear
6:35 AM 42.8 °F 40.1 °F 33.8 °F 70% 29.92 in 10.0 mi NNW 4.6 mph - N/A   Clear
6:55 AM 44.6 °F 41.4 °F 33.8 °F 66% 29.93 in 10.0 mi NNW 5.8 mph - N/A   Clear
7:15 AM 42.8 °F 39.3 °F 33.8 °F 70% 29.93 in 10.0 mi NNW 5.8 mph - N/A   Clear
7:35 AM 42.8 °F 38.6 °F 32.0 °F 66% 29.93 in 10.0 mi NNW 6.9 mph - N/A   Clear
7:55 AM 42.8 °F 39.3 °F 33.8 °F 70% 29.94 in 10.0 mi NW 5.8 mph - N/A   Clear
8:15 AM 42.8 °F 40.1 °F 33.8 °F 70% 29.94 in 10.0 mi NW 4.6 mph - N/A   Clear
8:35 AM 44.6 °F 42.2 °F 33.8 °F 66% 29.94 in 10.0 mi NNW 4.6 mph - N/A   Clear
8:55 AM 44.6 °F 41.4 °F 33.8 °F 66% 29.94 in 10.0 mi NNW 5.8 mph - N/A   Clear
9:15 AM 46.4 °F 42.9 °F 33.8 °F 62% 29.94 in 10.0 mi NNW 6.9 mph - N/A   Clear
9:35 AM 46.4 °F 41.5 °F 33.8 °F 62% 29.95 in 10.0 mi NW 10.4 mph - N/A   Clear
9:55 AM 48.2 °F - 33.8 °F 58% 29.96 in 10.0 mi WNW 11.5 mph - N/A   Clear
10:15 AM 48.2 °F - 33.8 °F 58% 29.96 in 10.0 mi WNW 10.4 mph - N/A   Clear
10:35 AM 50.0 °F - 32.0 °F 50% 29.96 in 10.0 mi NW 10.4 mph - N/A   Clear
10:55 AM 50.0 °F - 32.0 °F 50% 29.96 in 10.0 mi NNW 13.8 mph 19.6 mph N/A   Clear
11:15 AM 51.8 °F - 33.8 °F 50% 29.96 in 10.0 mi WNW 13.8 mph 18.4 mph N/A   Clear
11:35 AM 51.8 °F - 32.0 °F 47% 29.95 in 10.0 mi NNW 12.7 mph 16.1 mph N/A   Clear
11:55 AM 53.6 °F - 32.0 °F 44% 29.95 in 10.0 mi WNW 13.8 mph 18.4 mph N/A   Clear
12:15 PM 53.6 °F - 32.0 °F 44% 29.95 in 10.0 mi NW 17.3 mph 20.7 mph N/A   Clear
12:35 PM 53.6 °F - 32.0 °F 44% 29.95 in 10.0 mi NW 18.4 mph 24.2 mph N/A   Clear
12:55 PM 55.4 °F - 30.2 °F 38% 29.94 in 10.0 mi NNW 13.8 mph 25.3 mph N/A   Clear
1:15 PM 55.4 °F - 32.0 °F 41% 29.94 in 10.0 mi WNW 9.2 mph 21.9 mph N/A   Clear
1:35 PM 57.2 °F - 32.0 °F 38% 29.92 in 10.0 mi NW 9.2 mph - N/A   Clear
1:55 PM 57.2 °F - 32.0 °F 38% 29.92 in 10.0 mi WNW 17.3 mph 24.2 mph N/A   Clear
2:15 PM 59.0 °F - 32.0 °F 36% 29.91 in 10.0 mi WNW 12.7 mph 19.6 mph N/A   Clear
2:35 PM 59.0 °F - 32.0 °F 36% 29.90 in 10.0 mi WNW 17.3 mph 24.2 mph N/A   Clear
2:55 PM 59.0 °F - 32.0 °F 36% 29.90 in 10.0 mi WNW 10.4 mph 20.7 mph N/A   Clear
3:15 PM 60.8 °F - 32.0 °F 34% 29.88 in 10.0 mi WNW 15.0 mph 23.0 mph N/A   Clear
3:35 PM 60.8 °F - 32.0 °F 34% 29.88 in 10.0 mi NW 13.8 mph 25.3 mph N/A   Clear
3:55 PM 60.8 °F - 32.0 °F 34% 29.88 in 10.0 mi NW 15.0 mph 23.0 mph N/A   Clear
4:15 PM 60.8 °F - 32.0 °F 34% 29.87 in 10.0 mi NW 13.8 mph 19.6 mph N/A   Clear
4:55 PM 60.8 °F - 32.0 °F 34% 29.87 in 10.0 mi NW 15.0 mph 21.9 mph N/A   Clear
5:15 PM 60.8 °F - 32.0 °F 34% 29.87 in 10.0 mi NW 18.4 mph - N/A   Clear
5:35 PM 60.8 °F - 32.0 °F 34% 29.88 in 10.0 mi WNW 11.5 mph 21.9 mph N/A   Clear
5:55 PM 60.8 °F - 30.2 °F 31% 29.88 in 10.0 mi NW 18.4 mph 23.0 mph N/A   Clear
6:15 PM 59.0 °F - 30.2 °F 34% 29.88 in 10.0 mi NW 17.3 mph 23.0 mph N/A   Clear
6:35 PM 59.0 °F - 30.2 °F 34% 29.89 in 10.0 mi NW 10.4 mph 19.6 mph N/A   Clear
6:55 PM 59.0 °F - 30.2 °F 34% 29.90 in 10.0 mi NW 10.4 mph 18.4 mph N/A   Clear
7:15 PM 57.2 °F - 30.2 °F 36% 29.90 in 10.0 mi NW 6.9 mph - N/A   Clear
7:35 PM 55.4 °F - 30.2 °F 38% 29.91 in 10.0 mi NNW 5.8 mph - N/A   Clear
7:55 PM 53.6 °F - 30.2 °F 41% 29.91 in 10.0 mi Calm Calm - N/A   Clear
8:15 PM 51.8 °F - 30.2 °F 44% 29.92 in 10.0 mi NNW 3.5 mph - N/A   Clear
8:35 PM 50.0 °F - 30.2 °F 47% 29.92 in 10.0 mi North 3.5 mph - N/A   Clear
8:55 PM 50.0 °F - 30.2 °F 47% 29.92 in 10.0 mi NNW 3.5 mph - N/A   Clear
9:15 PM 46.4 °F 45.2 °F 32.0 °F 57% 29.93 in 10.0 mi NNW 3.5 mph - N/A   Clear
9:55 PM 44.6 °F 43.1 °F 32.0 °F 61% 29.94 in 10.0 mi NNW 3.5 mph - N/A   Clear
10:15 PM 42.8 °F 41.1 °F 33.8 °F 70% 29.95 in 10.0 mi NNW 3.5 mph - N/A   Clear
10:35 PM 42.8 °F 41.1 °F 33.8 °F 70% 29.95 in 10.0 mi NNW 3.5 mph - N/A   Clear
10:55 PM 41.0 °F 39.0 °F 33.8 °F 76% 29.95 in 10.0 mi NNW 3.5 mph - N/A   Clear
11:15 PM 37.4 °F - 33.8 °F 87% 29.96 in 10.0 mi Calm Calm - N/A   Clear
11:35 PM 37.4 °F 34.9 °F 33.8 °F 87% 29.96 in 10.0 mi North 3.5 mph - N/A   Clear
11:55 PM 35.6 °F 31.7 °F 33.8 °F 93% 29.96 in 10.0 mi NNE 4.6 mph - N/A   Clear